Time,TemperatureF,DewpointF,PressureIn,WindDirection,WindDirectionDegrees,WindSpeedMPH,WindSpeedGustMPH,Humidity,HourlyPrecipIn,Conditions,Clouds,dailyrainin,SoftwareType,DateUTC
2013-03-31 00:00:00,40.4,18.0,30.08,WNW,292,3.7,6.8,41,0.00,,,0.00,Rainwise IP-100,2013-03-31 04:00:00,
2013-03-31 00:01:00,40.4,18.0,30.08,WNW,292,2.8,6.5,40,0.00,,,0.00,Rainwise IP-100,2013-03-31 04:01:00,
2013-03-31 00:06:00,40.5,18.0,30.09,WNW,292,2.8,7.2,40,0.00,,,0.00,Rainwise IP-100,2013-03-31 04:06:00,
2013-03-31 00:11:00,40.4,18.0,30.09,WNW,292,2.6,5.6,40,0.00,,,0.00,Rainwise IP-100,2013-03-31 04:11:00,
2013-03-31 00:16:00,40.2,18.0,30.09,West,270,4.0,4.4,40,0.00,,,0.00,Rainwise IP-100,2013-03-31 04:16:00,
2013-03-31 00:21:00,40.0,18.0,30.09,WNW,292,7.2,7.9,39,0.00,,,0.00,Rainwise IP-100,2013-03-31 04:21:00,
2013-03-31 00:26:00,40.1,18.0,30.09,NW,315,2.3,8.2,39,0.00,,,0.00,Rainwise IP-100,2013-03-31 04:26:00,
2013-03-31 00:31:00,40.1,18.0,30.09,WNW,292,4.0,6.5,38,0.00,,,0.00,Rainwise IP-100,2013-03-31 04:31:00,
2013-03-31 00:33:00,40.1,18.0,30.09,NW,315,1.9,5.8,38,0.00,,,0.00,Rainwise IP-100,2013-03-31 04:33:00,
2013-03-31 00:38:00,39.8,18.0,30.09,WNW,292,2.6,5.6,39,0.00,,,0.00,Rainwise IP-100,2013-03-31 04:38:00,
2013-03-31 00:43:00,39.5,18.0,30.09,WNW,292,3.7,4.9,39,0.00,,,0.00,Rainwise IP-100,2013-03-31 04:43:00,
2013-03-31 00:48:00,39.2,16.0,30.09,WNW,292,3.0,4.4,39,0.00,,,0.00,Rainwise IP-100,2013-03-31 04:48:00,
2013-03-31 00:53:00,39.1,16.0,30.09,NW,315,4.4,4.9,39,0.00,,,0.00,Rainwise IP-100,2013-03-31 04:53:00,
2013-03-31 00:58:00,39.0,16.0,30.09,WNW,292,2.1,7.0,39,0.00,,,0.00,Rainwise IP-100,2013-03-31 04:58:00,
2013-03-31 01:03:00,38.9,16.0,30.09,WSW,247,2.6,5.4,39,0.00,,,0.00,Rainwise IP-100,2013-03-31 05:03:00,
2013-03-31 01:08:00,38.7,16.0,30.09,WNW,292,3.0,5.6,39,0.00,,,0.00,Rainwise IP-100,2013-03-31 05:08:00,
2013-03-31 01:13:00,38.6,16.0,30.09,WNW,292,3.7,4.2,39,0.00,,,0.00,Rainwise IP-100,2013-03-31 05:13:00,
2013-03-31 01:18:00,38.6,16.0,30.09,WNW,292,4.7,6.1,39,0.00,,,0.00,Rainwise IP-100,2013-03-31 05:18:00,
2013-03-31 01:23:00,38.6,16.0,30.09,NW,315,2.3,6.1,39,0.00,,,0.00,Rainwise IP-100,2013-03-31 05:23:00,
2013-03-31 01:28:00,38.6,16.0,30.09,WNW,292,4.2,5.8,38,0.00,,,0.00,Rainwise IP-100,2013-03-31 05:28:00,
2013-03-31 01:33:00,38.7,16.0,30.09,WNW,292,1.6,6.1,38,0.00,,,0.00,Rainwise IP-100,2013-03-31 05:33:00,
2013-03-31 01:38:00,38.9,16.0,30.09,WNW,292,6.5,7.2,38,0.00,,,0.00,Rainwise IP-100,2013-03-31 05:38:00,
2013-03-31 01:43:00,38.9,16.0,30.09,WNW,292,5.1,6.5,38,0.00,,,0.00,Rainwise IP-100,2013-03-31 05:43:00,
2013-03-31 01:48:00,39.0,16.0,30.09,NW,315,7.2,10.5,38,0.00,,,0.00,Rainwise IP-100,2013-03-31 05:48:00,
2013-03-31 01:53:00,39.1,16.0,30.09,WNW,292,2.8,8.2,38,0.00,,,0.00,Rainwise IP-100,2013-03-31 05:53:00,
2013-03-31 01:58:00,39.0,16.0,30.09,NW,315,3.7,8.4,38,0.00,,,0.00,Rainwise IP-100,2013-03-31 05:58:00,
2013-03-31 02:04:00,38.8,16.0,30.09,NW,315,3.5,5.8,38,0.00,,,0.00,Rainwise IP-100,2013-03-31 06:04:00,
2013-03-31 02:09:00,38.6,16.0,30.09,WNW,292,3.3,6.8,39,0.00,,,0.00,Rainwise IP-100,2013-03-31 06:09:00,
2013-03-31 02:14:00,38.6,16.0,30.09,WNW,292,3.7,7.9,38,0.00,,,0.00,Rainwise IP-100,2013-03-31 06:14:00,
2013-03-31 02:19:00,38.5,16.0,30.09,NNW,337,4.2,7.7,38,0.00,,,0.00,Rainwise IP-100,2013-03-31 06:19:00,
2013-03-31 02:24:00,38.3,16.0,30.09,WNW,292,3.3,5.1,39,0.00,,,0.00,Rainwise IP-100,2013-03-31 06:24:00,
2013-03-31 02:29:00,38.3,16.0,30.09,NW,315,1.9,7.5,39,0.00,,,0.00,Rainwise IP-100,2013-03-31 06:29:00,
2013-03-31 02:34:00,38.3,16.0,30.10,NNW,337,4.0,6.1,38,0.00,,,0.00,Rainwise IP-100,2013-03-31 06:34:00,
2013-03-31 02:39:00,38.3,16.0,30.09,WNW,292,4.7,8.6,38,0.00,,,0.00,Rainwise IP-100,2013-03-31 06:39:00,
2013-03-31 02:44:00,38.3,16.0,30.09,WNW,292,3.3,8.9,38,0.00,,,0.00,Rainwise IP-100,2013-03-31 06:44:00,
2013-03-31 02:49:00,38.2,16.0,30.09,NNW,337,4.0,6.8,38,0.00,,,0.00,Rainwise IP-100,2013-03-31 06:49:00,
2013-03-31 02:54:00,38.1,16.0,30.09,NNE,22,5.1,7.9,38,0.00,,,0.00,Rainwise IP-100,2013-03-31 06:54:00,
2013-03-31 02:59:00,38.1,16.0,30.09,WNW,292,4.7,7.5,38,0.00,,,0.00,Rainwise IP-100,2013-03-31 06:59:00,
2013-03-31 03:04:00,38.0,16.0,30.09,NNW,337,4.7,6.8,39,0.00,,,0.00,Rainwise IP-100,2013-03-31 07:04:00,
2013-03-31 03:09:00,37.9,16.0,30.09,WNW,292,7.9,7.9,39,0.00,,,0.00,Rainwise IP-100,2013-03-31 07:09:00,
2013-03-31 03:14:00,37.8,16.0,30.09,WNW,292,1.9,8.9,39,0.00,,,0.00,Rainwise IP-100,2013-03-31 07:14:00,
2013-03-31 03:19:00,37.8,16.0,30.09,WNW,292,2.3,11.7,39,0.00,,,0.00,Rainwise IP-100,2013-03-31 07:19:00,
2013-03-31 03:24:00,37.7,16.0,30.09,WNW,292,2.8,6.3,39,0.00,,,0.00,Rainwise IP-100,2013-03-31 07:24:00,
2013-03-31 03:29:00,37.6,16.0,30.09,WNW,292,1.2,8.6,39,0.00,,,0.00,Rainwise IP-100,2013-03-31 07:29:00,
2013-03-31 03:34:00,37.5,16.0,30.09,NNW,337,3.7,7.2,39,0.00,,,0.00,Rainwise IP-100,2013-03-31 07:34:00,
2013-03-31 03:39:00,37.5,16.0,30.09,NW,315,2.6,6.5,39,0.00,,,0.00,Rainwise IP-100,2013-03-31 07:39:00,
2013-03-31 03:44:00,37.4,16.0,30.09,WNW,292,3.0,6.8,39,0.00,,,0.00,Rainwise IP-100,2013-03-31 07:44:00,
2013-03-31 03:49:00,37.2,16.0,30.09,NW,315,1.6,4.4,39,0.00,,,0.00,Rainwise IP-100,2013-03-31 07:49:00,
2013-03-31 03:54:00,37.0,16.0,30.09,WNW,292,2.3,4.9,40,0.00,,,0.00,Rainwise IP-100,2013-03-31 07:54:00,
2013-03-31 03:59:00,36.8,16.0,30.09,WNW,292,2.1,4.2,40,0.00,,,0.00,Rainwise IP-100,2013-03-31 07:59:00,
2013-03-31 04:04:00,36.7,16.0,30.09,WNW,292,2.8,4.9,40,0.00,,,0.00,Rainwise IP-100,2013-03-31 08:04:00,
2013-03-31 04:09:00,36.7,16.0,30.10,WNW,292,3.5,4.7,40,0.00,,,0.00,Rainwise IP-100,2013-03-31 08:09:00,
2013-03-31 04:14:00,36.6,16.0,30.09,WNW,292,2.1,4.4,40,0.00,,,0.00,Rainwise IP-100,2013-03-31 08:14:00,
2013-03-31 04:19:00,36.6,16.0,30.09,WNW,292,2.1,5.6,40,0.00,,,0.00,Rainwise IP-100,2013-03-31 08:19:00,
2013-03-31 04:24:00,36.5,16.0,30.09,WNW,292,1.9,3.7,40,0.00,,,0.00,Rainwise IP-100,2013-03-31 08:24:00,
2013-03-31 04:29:00,36.4,16.0,30.10,WNW,292,2.8,3.3,41,0.00,,,0.00,Rainwise IP-100,2013-03-31 08:29:00,
2013-03-31 04:34:00,36.2,16.0,30.10,West,270,1.6,4.2,41,0.00,,,0.00,Rainwise IP-100,2013-03-31 08:34:00,
2013-03-31 04:39:00,36.0,16.0,30.10,WNW,292,2.6,3.5,41,0.00,,,0.00,Rainwise IP-100,2013-03-31 08:39:00,
2013-03-31 04:44:00,36.1,16.0,30.10,WNW,292,2.6,7.0,41,0.00,,,0.00,Rainwise IP-100,2013-03-31 08:44:00,
2013-03-31 04:49:00,36.1,16.0,30.10,WNW,292,1.9,3.3,41,0.00,,,0.00,Rainwise IP-100,2013-03-31 08:49:00,
2013-03-31 04:54:00,36.0,16.0,30.10,WNW,292,2.1,3.5,41,0.00,,,0.00,Rainwise IP-100,2013-03-31 08:54:00,
2013-03-31 04:59:00,35.9,16.0,30.10,WNW,292,2.6,3.7,41,0.00,,,0.00,Rainwise IP-100,2013-03-31 08:59:00,
2013-03-31 05:04:00,35.8,16.0,30.10,WNW,292,2.3,4.0,42,0.00,,,0.00,Rainwise IP-100,2013-03-31 09:04:00,
2013-03-31 05:09:00,35.8,16.0,30.10,WNW,292,3.0,4.0,42,0.00,,,0.00,Rainwise IP-100,2013-03-31 09:09:00,
2013-03-31 05:14:00,35.8,16.0,30.11,WNW,292,2.6,5.6,42,0.00,,,0.00,Rainwise IP-100,2013-03-31 09:14:00,
2013-03-31 05:19:00,36.0,16.0,30.11,WNW,292,3.0,5.4,41,0.00,,,0.00,Rainwise IP-100,2013-03-31 09:19:00,
2013-03-31 05:24:00,35.9,16.0,30.11,WNW,292,2.3,5.8,41,0.00,,,0.00,Rainwise IP-100,2013-03-31 09:24:00,
2013-03-31 05:29:00,35.8,16.0,30.11,NW,315,2.3,4.7,41,0.00,,,0.00,Rainwise IP-100,2013-03-31 09:29:00,
2013-03-31 05:34:00,35.7,16.0,30.11,WNW,292,3.5,4.0,41,0.00,,,0.00,Rainwise IP-100,2013-03-31 09:34:00,
2013-03-31 05:39:00,35.6,16.0,30.11,WNW,292,2.6,4.4,41,0.00,,,0.00,Rainwise IP-100,2013-03-31 09:39:00,
2013-03-31 05:44:00,35.6,16.0,30.11,WNW,292,3.3,6.3,41,0.00,,,0.00,Rainwise IP-100,2013-03-31 09:44:00,
2013-03-31 05:49:00,35.5,16.0,30.11,WNW,292,2.6,4.7,42,0.00,,,0.00,Rainwise IP-100,2013-03-31 09:49:00,
2013-03-31 05:54:00,35.4,14.0,30.11,WNW,292,3.0,4.4,42,0.00,,,0.00,Rainwise IP-100,2013-03-31 09:54:00,
2013-03-31 05:59:00,35.5,16.0,30.12,West,270,2.3,4.7,42,0.00,,,0.00,Rainwise IP-100,2013-03-31 09:59:00,
2013-03-31 06:04:00,35.5,16.0,30.12,WNW,292,2.1,3.5,42,0.00,,,0.00,Rainwise IP-100,2013-03-31 10:04:00,
2013-03-31 06:09:00,35.5,16.0,30.12,WNW,292,2.6,5.4,42,0.00,,,0.00,Rainwise IP-100,2013-03-31 10:09:00,
2013-03-31 06:14:00,35.5,16.0,30.12,WNW,292,2.3,4.2,42,0.00,,,0.00,Rainwise IP-100,2013-03-31 10:14:00,
2013-03-31 06:19:00,35.5,16.0,30.12,WNW,292,2.3,4.2,42,0.00,,,0.00,Rainwise IP-100,2013-03-31 10:19:00,
2013-03-31 06:24:00,35.4,14.0,30.12,WNW,292,1.6,3.0,42,0.00,,,0.00,Rainwise IP-100,2013-03-31 10:24:00,
2013-03-31 06:29:00,35.3,14.0,30.12,WNW,292,1.6,3.0,42,0.00,,,0.00,Rainwise IP-100,2013-03-31 10:29:00,
2013-03-31 06:34:00,35.2,14.0,30.12,WNW,292,1.6,3.0,42,0.00,,,0.00,Rainwise IP-100,2013-03-31 10:34:00,
2013-03-31 06:39:00,35.4,14.0,30.13,WNW,292,1.4,4.2,42,0.00,,,0.00,Rainwise IP-100,2013-03-31 10:39:00,
2013-03-31 06:44:00,35.6,16.0,30.13,WNW,292,2.1,4.0,42,0.00,,,0.00,Rainwise IP-100,2013-03-31 10:44:00,
2013-03-31 06:49:00,35.7,16.0,30.13,NW,315,2.3,4.0,41,0.00,,,0.00,Rainwise IP-100,2013-03-31 10:49:00,
2013-03-31 06:54:00,35.8,16.0,30.13,WNW,292,1.6,2.8,41,0.00,,,0.00,Rainwise IP-100,2013-03-31 10:54:00,
2013-03-31 06:59:00,35.9,16.0,30.13,NW,315,2.3,3.7,42,0.00,,,0.00,Rainwise IP-100,2013-03-31 10:59:00,
2013-03-31 07:04:00,35.8,16.0,30.14,NNW,337,1.6,3.5,43,0.00,,,0.00,Rainwise IP-100,2013-03-31 11:04:00,
2013-03-31 07:09:00,35.8,16.0,30.14,NNW,337,3.3,3.5,44,0.00,,,0.00,Rainwise IP-100,2013-03-31 11:09:00,
2013-03-31 07:14:00,36.0,16.0,30.13,NW,315,2.8,5.6,45,0.00,,,0.00,Rainwise IP-100,2013-03-31 11:14:00,
2013-03-31 07:19:00,36.2,16.0,30.13,NW,315,1.9,4.0,45,0.00,,,0.00,Rainwise IP-100,2013-03-31 11:19:00,
2013-03-31 07:24:00,36.5,18.0,30.14,NNW,337,3.3,3.7,45,0.00,,,0.00,Rainwise IP-100,2013-03-31 11:24:00,
2013-03-31 07:29:00,36.5,18.0,30.14,NNW,337,3.0,4.7,47,0.00,,,0.00,Rainwise IP-100,2013-03-31 11:29:00,
2013-03-31 07:34:00,36.6,21.0,30.14,NNW,337,4.4,4.4,48,0.00,,,0.00,Rainwise IP-100,2013-03-31 11:34:00,
2013-03-31 07:39:00,36.8,21.0,30.14,NNW,337,3.5,5.6,48,0.00,,,0.00,Rainwise IP-100,2013-03-31 11:39:00,
2013-03-31 07:44:00,37.0,18.0,30.14,NW,315,5.1,6.5,46,0.00,,,0.00,Rainwise IP-100,2013-03-31 11:44:00,
2013-03-31 07:49:00,37.1,18.0,30.14,NNW,337,5.1,6.1,45,0.00,,,0.00,Rainwise IP-100,2013-03-31 11:49:00,
2013-03-31 07:54:00,37.2,18.0,30.15,NW,315,5.4,6.5,45,0.00,,,0.00,Rainwise IP-100,2013-03-31 11:54:00,
2013-03-31 07:59:00,37.3,18.0,30.14,NW,315,2.8,6.3,45,0.00,,,0.00,Rainwise IP-100,2013-03-31 11:59:00,
2013-03-31 08:04:00,37.4,18.0,30.14,NNW,337,5.4,7.5,46,0.00,,,0.00,Rainwise IP-100,2013-03-31 12:04:00,
2013-03-31 08:09:00,37.4,18.0,30.15,NNW,337,4.7,6.5,46,0.00,,,0.00,Rainwise IP-100,2013-03-31 12:09:00,
2013-03-31 08:14:00,37.2,18.0,30.14,NW,315,3.0,7.2,47,0.00,,,0.00,Rainwise IP-100,2013-03-31 12:14:00,
2013-03-31 08:19:00,37.4,21.0,30.15,NNW,337,3.5,6.1,48,0.00,,,0.00,Rainwise IP-100,2013-03-31 12:19:00,
2013-03-31 08:24:00,38.0,21.0,30.14,NW,315,2.8,5.8,47,0.00,,,0.00,Rainwise IP-100,2013-03-31 12:24:00,
2013-03-31 08:29:00,38.5,21.0,30.14,NNE,22,3.7,5.6,45,0.00,,,0.00,Rainwise IP-100,2013-03-31 12:29:00,
2013-03-31 08:34:00,39.0,21.0,30.14,North,360,3.5,5.8,44,0.00,,,0.00,Rainwise IP-100,2013-03-31 12:34:00,
2013-03-31 08:39:00,39.1,21.0,30.14,NNW,337,3.3,5.8,45,0.00,,,0.00,Rainwise IP-100,2013-03-31 12:39:00,
2013-03-31 08:44:00,39.0,21.0,30.14,NNW,337,2.3,5.8,45,0.00,,,0.00,Rainwise IP-100,2013-03-31 12:44:00,
2013-03-31 08:49:00,38.7,21.0,30.14,NNW,337,4.4,5.6,46,0.00,,,0.00,Rainwise IP-100,2013-03-31 12:49:00,
2013-03-31 08:54:00,38.4,21.0,30.14,NNW,337,4.2,5.1,46,0.00,,,0.00,Rainwise IP-100,2013-03-31 12:54:00,
2013-03-31 08:59:00,38.1,21.0,30.14,NNW,337,3.3,4.9,46,0.00,,,0.00,Rainwise IP-100,2013-03-31 12:59:00,
2013-03-31 09:04:00,38.1,18.0,30.15,NW,315,3.3,4.2,45,0.00,,,0.00,Rainwise IP-100,2013-03-31 13:04:00,
2013-03-31 09:09:00,38.5,21.0,30.15,NW,315,4.0,4.4,45,0.00,,,0.00,Rainwise IP-100,2013-03-31 13:09:00,
2013-03-31 09:14:00,38.5,21.0,30.15,NNW,337,3.5,4.2,45,0.00,,,0.00,Rainwise IP-100,2013-03-31 13:14:00,
2013-03-31 09:19:00,38.6,21.0,30.14,NNW,337,3.3,4.2,44,0.00,,,0.00,Rainwise IP-100,2013-03-31 13:19:00,
2013-03-31 09:24:00,38.9,18.0,30.15,NNE,22,1.4,4.2,43,0.00,,,0.00,Rainwise IP-100,2013-03-31 13:24:00,
2013-03-31 09:29:00,40.2,21.0,30.14,NNE,22,2.8,3.5,42,0.00,,,0.00,Rainwise IP-100,2013-03-31 13:29:00,
2013-03-31 09:34:00,40.6,21.0,30.15,NNE,22,2.1,4.9,43,0.00,,,0.00,Rainwise IP-100,2013-03-31 13:34:00,
2013-03-31 09:39:00,40.3,21.0,30.15,NNW,337,2.1,3.5,45,0.00,,,0.00,Rainwise IP-100,2013-03-31 13:39:00,
2013-03-31 09:44:00,41.0,23.0,30.15,ENE,67,1.4,3.7,46,0.00,,,0.00,Rainwise IP-100,2013-03-31 13:44:00,
2013-03-31 09:49:00,41.8,23.0,30.15,ENE,67,1.9,3.3,46,0.00,,,0.00,Rainwise IP-100,2013-03-31 13:49:00,
2013-03-31 09:54:00,41.5,23.0,30.15,NE,45,2.1,4.0,45,0.00,,,0.00,Rainwise IP-100,2013-03-31 13:54:00,
2013-03-31 09:59:00,41.2,21.0,30.15,NNE,22,2.6,4.0,44,0.00,,,0.00,Rainwise IP-100,2013-03-31 13:59:00,
2013-03-31 10:04:00,41.9,23.0,30.14,ENE,67,2.1,3.7,43,0.00,,,0.00,Rainwise IP-100,2013-03-31 14:04:00,
2013-03-31 10:09:00,42.4,21.0,30.15,ESE,112,1.9,3.7,42,0.00,,,0.00,Rainwise IP-100,2013-03-31 14:09:00,
2013-03-31 10:14:00,42.6,21.0,30.14,ESE,112,6.1,8.2,40,0.00,,,0.00,Rainwise IP-100,2013-03-31 14:14:00,
2013-03-31 10:19:00,42.6,18.0,30.14,ESE,112,6.1,8.2,37,0.00,,,0.00,Rainwise IP-100,2013-03-31 14:19:00,
2013-03-31 10:24:00,42.4,18.0,30.15,ESE,112,6.5,9.1,36,0.00,,,0.00,Rainwise IP-100,2013-03-31 14:24:00,
2013-03-31 10:29:00,42.5,18.0,30.14,ESE,112,7.2,8.6,35,0.00,,,0.00,Rainwise IP-100,2013-03-31 14:29:00,
2013-03-31 10:35:00,42.8,18.0,30.14,ESE,112,9.8,12.1,34,0.00,,,0.00,Rainwise IP-100,2013-03-31 14:35:00,
2013-03-31 10:40:00,43.0,16.0,30.14,SE,135,9.8,11.4,33,0.00,,,0.00,Rainwise IP-100,2013-03-31 14:40:00,
2013-03-31 10:45:00,43.3,16.0,30.14,SSE,157,6.1,10.7,31,0.00,,,0.00,Rainwise IP-100,2013-03-31 14:45:00,
2013-03-31 10:50:00,43.3,16.0,30.14,ESE,112,6.5,13.1,31,0.00,,,0.00,Rainwise IP-100,2013-03-31 14:50:00,
2013-03-31 10:55:00,43.1,16.0,30.14,ESE,112,10.3,13.3,31,0.00,,,0.00,Rainwise IP-100,2013-03-31 14:55:00,
2013-03-31 11:00:00,42.8,16.0,30.14,ESE,112,12.4,14.5,31,0.00,,,0.00,Rainwise IP-100,2013-03-31 15:00:00,
2013-03-31 11:05:00,42.6,16.0,30.14,SSE,157,9.8,14.9,31,0.00,,,0.00,Rainwise IP-100,2013-03-31 15:05:00,
2013-03-31 11:10:00,42.5,16.0,30.14,ESE,112,9.6,14.0,32,0.00,,,0.00,Rainwise IP-100,2013-03-31 15:10:00,
2013-03-31 11:15:00,42.4,16.0,30.14,ESE,112,12.6,14.7,33,0.00,,,0.00,Rainwise IP-100,2013-03-31 15:15:00,
2013-03-31 11:20:00,42.1,16.0,30.14,ESE,112,8.2,14.0,34,0.00,,,0.00,Rainwise IP-100,2013-03-31 15:20:00,
2013-03-31 11:25:00,41.8,18.0,30.14,ESE,112,7.7,14.9,37,0.00,,,0.00,Rainwise IP-100,2013-03-31 15:25:00,
2013-03-31 11:30:00,41.5,21.0,30.14,ESE,112,10.0,16.3,39,0.00,,,0.00,Rainwise IP-100,2013-03-31 15:30:00,
2013-03-31 11:35:00,41.1,23.0,30.13,ESE,112,9.8,14.9,45,0.00,,,0.00,Rainwise IP-100,2013-03-31 15:35:00,
2013-03-31 11:40:00,41.2,24.0,30.13,ESE,112,11.4,17.3,50,0.00,,,0.00,Rainwise IP-100,2013-03-31 15:40:00,
2013-03-31 11:45:00,41.3,26.0,30.13,East,90,4.9,13.8,55,0.00,,,0.00,Rainwise IP-100,2013-03-31 15:45:00,
2013-03-31 11:50:00,42.2,29.0,30.13,ESE,112,5.8,8.2,58,0.00,,,0.00,Rainwise IP-100,2013-03-31 15:50:00,
2013-03-31 11:55:00,43.7,29.0,30.12,ESE,112,5.4,9.6,56,0.00,,,0.00,Rainwise IP-100,2013-03-31 15:55:00,
2013-03-31 12:00:00,44.7,29.0,30.13,ENE,67,6.1,7.2,52,0.00,,,0.00,Rainwise IP-100,2013-03-31 16:00:00,
2013-03-31 12:05:00,45.1,26.0,30.12,ESE,112,3.7,7.0,48,0.00,,,0.00,Rainwise IP-100,2013-03-31 16:05:00,
2013-03-31 12:10:00,45.5,26.0,30.12,NNE,22,2.6,5.8,46,0.00,,,0.00,Rainwise IP-100,2013-03-31 16:10:00,
2013-03-31 12:15:00,46.5,26.0,30.12,ENE,67,2.8,7.2,43,0.00,,,0.00,Rainwise IP-100,2013-03-31 16:15:00,
2013-03-31 12:20:00,47.5,24.0,30.12,ESE,112,4.0,5.6,39,0.00,,,0.00,Rainwise IP-100,2013-03-31 16:20:00,
2013-03-31 12:25:00,48.4,21.0,30.11,SE,135,4.4,6.8,33,0.00,,,0.00,Rainwise IP-100,2013-03-31 16:25:00,
2013-03-31 12:30:00,49.7,21.0,30.11,SW,225,7.2,10.0,31,0.00,,,0.00,Rainwise IP-100,2013-03-31 16:30:00,
2013-03-31 12:35:00,50.4,21.0,30.12,SSE,157,4.4,9.8,29,0.00,,,0.00,Rainwise IP-100,2013-03-31 16:35:00,
2013-03-31 12:40:00,50.6,18.0,30.11,ESE,112,2.3,6.8,28,0.00,,,0.00,Rainwise IP-100,2013-03-31 16:40:00,
2013-03-31 12:45:00,50.8,18.0,30.11,SW,225,8.2,11.7,27,0.00,,,0.00,Rainwise IP-100,2013-03-31 16:45:00,
2013-03-31 12:50:00,51.1,18.0,30.12,SW,225,4.2,9.8,27,0.00,,,0.00,Rainwise IP-100,2013-03-31 16:50:00,
2013-03-31 12:55:00,51.0,18.0,30.12,SSE,157,7.9,11.9,27,0.00,,,0.00,Rainwise IP-100,2013-03-31 16:55:00,
2013-03-31 13:00:00,50.8,21.0,30.11,SSE,157,3.0,12.1,28,0.00,,,0.00,Rainwise IP-100,2013-03-31 17:00:00,
2013-03-31 13:05:00,50.5,18.0,30.11,SSW,202,4.9,12.8,28,0.00,,,0.00,Rainwise IP-100,2013-03-31 17:05:00,
2013-03-31 13:10:00,50.2,18.0,30.11,SW,225,5.8,10.5,28,0.00,,,0.00,Rainwise IP-100,2013-03-31 17:10:00,
2013-03-31 13:15:00,50.2,18.0,30.11,SSW,202,4.2,10.5,28,0.00,,,0.00,Rainwise IP-100,2013-03-31 17:15:00,
2013-03-31 13:20:00,50.4,18.0,30.11,SSE,157,5.1,11.4,28,0.00,,,0.00,Rainwise IP-100,2013-03-31 17:20:00,
2013-03-31 13:25:00,50.1,18.0,30.11,SW,225,5.1,10.0,27,0.00,,,0.00,Rainwise IP-100,2013-03-31 17:25:00,
2013-03-31 13:30:00,49.7,18.0,30.11,SSE,157,8.9,12.1,27,0.00,,,0.00,Rainwise IP-100,2013-03-31 17:30:00,
2013-03-31 13:35:00,49.4,18.0,30.10,South,180,13.5,15.4,29,0.00,,,0.00,Rainwise IP-100,2013-03-31 17:35:00,
2013-03-31 13:40:00,49.3,18.0,30.10,SSW,202,6.8,14.5,29,0.00,,,0.00,Rainwise IP-100,2013-03-31 17:40:00,
2013-03-31 13:45:00,49.2,18.0,30.11,SSW,202,7.2,13.1,29,0.00,,,0.00,Rainwise IP-100,2013-03-31 17:45:00,
2013-03-31 13:50:00,49.2,21.0,30.10,SSW,202,6.3,12.4,30,0.00,,,0.00,Rainwise IP-100,2013-03-31 17:50:00,
2013-03-31 13:55:00,49.7,21.0,30.10,WSW,247,4.9,14.7,30,0.00,,,0.00,Rainwise IP-100,2013-03-31 17:55:00,
2013-03-31 14:00:00,50.0,18.0,30.10,WSW,247,5.1,15.9,29,0.00,,,0.00,Rainwise IP-100,2013-03-31 18:00:00,
2013-03-31 14:05:00,49.7,18.0,30.10,SSW,202,7.0,14.5,29,0.00,,,0.00,Rainwise IP-100,2013-03-31 18:05:00,
2013-03-31 14:10:00,49.6,18.0,30.10,SW,225,11.9,16.8,29,0.00,,,0.00,Rainwise IP-100,2013-03-31 18:10:00,
2013-03-31 14:15:00,49.7,18.0,30.10,SW,225,4.9,13.3,28,0.00,,,0.00,Rainwise IP-100,2013-03-31 18:15:00,
2013-03-31 14:20:00,49.6,18.0,30.10,SSW,202,4.9,11.7,29,0.00,,,0.00,Rainwise IP-100,2013-03-31 18:20:00,
2013-03-31 14:25:00,49.6,18.0,30.10,SSW,202,9.6,13.3,29,0.00,,,0.00,Rainwise IP-100,2013-03-31 18:25:00,
2013-03-31 14:30:00,49.7,18.0,30.10,SSW,202,4.7,13.3,29,0.00,,,0.00,Rainwise IP-100,2013-03-31 18:30:00,
2013-03-31 14:35:00,49.7,18.0,30.10,SSW,202,6.5,13.8,28,0.00,,,0.00,Rainwise IP-100,2013-03-31 18:35:00,
2013-03-31 14:40:00,49.4,18.0,30.09,WNW,292,4.0,11.7,28,0.00,,,0.00,Rainwise IP-100,2013-03-31 18:40:00,
2013-03-31 14:45:00,49.4,18.0,30.09,SW,225,7.2,12.4,29,0.00,,,0.00,Rainwise IP-100,2013-03-31 18:45:00,
2013-03-31 14:50:00,49.6,18.0,30.09,South,180,5.1,9.3,29,0.00,,,0.00,Rainwise IP-100,2013-03-31 18:50:00,
2013-03-31 14:55:00,49.6,18.0,30.09,WNW,292,1.4,14.2,29,0.00,,,0.00,Rainwise IP-100,2013-03-31 18:55:00,
2013-03-31 15:00:00,49.8,18.0,30.08,SW,225,1.2,12.1,29,0.00,,,0.00,Rainwise IP-100,2013-03-31 19:00:00,
2013-03-31 15:05:00,49.9,18.0,30.08,SW,225,1.9,12.1,29,0.00,,,0.00,Rainwise IP-100,2013-03-31 19:05:00,
2013-03-31 15:10:00,50.0,18.0,30.08,WSW,247,4.2,7.7,29,0.00,,,0.00,Rainwise IP-100,2013-03-31 19:10:00,
2013-03-31 15:15:00,50.0,18.0,30.08,SE,135,5.4,12.4,29,0.00,,,0.00,Rainwise IP-100,2013-03-31 19:15:00,
2013-03-31 15:20:00,49.7,18.0,30.08,WSW,247,12.1,12.6,29,0.00,,,0.00,Rainwise IP-100,2013-03-31 19:20:00,
2013-03-31 15:25:00,49.5,18.0,30.09,SSW,202,5.6,14.9,29,0.00,,,0.00,Rainwise IP-100,2013-03-31 19:25:00,
2013-03-31 15:30:00,49.7,21.0,30.08,WSW,247,6.1,11.2,30,0.00,,,0.00,Rainwise IP-100,2013-03-31 19:30:00,
2013-03-31 15:35:00,49.7,18.0,30.08,SW,225,5.1,12.1,29,0.00,,,0.00,Rainwise IP-100,2013-03-31 19:35:00,
2013-03-31 15:40:00,49.3,18.0,30.08,SSW,202,4.4,12.8,29,0.00,,,0.00,Rainwise IP-100,2013-03-31 19:40:00,
2013-03-31 15:45:00,49.2,21.0,30.08,SSW,202,1.9,12.4,30,0.00,,,0.00,Rainwise IP-100,2013-03-31 19:45:00,
2013-03-31 15:50:00,49.0,21.0,30.08,SSE,157,7.0,11.9,30,0.00,,,0.00,Rainwise IP-100,2013-03-31 19:50:00,
2013-03-31 15:55:00,48.9,21.0,30.08,SSW,202,10.7,10.7,30,0.00,,,0.00,Rainwise IP-100,2013-03-31 19:55:00,
2013-03-31 16:00:00,48.9,18.0,30.08,SSW,202,7.7,12.4,29,0.00,,,0.00,Rainwise IP-100,2013-03-31 20:00:00,
2013-03-31 16:05:00,48.5,18.0,30.08,SSW,202,6.5,12.6,29,0.00,,,0.00,Rainwise IP-100,2013-03-31 20:05:00,
2013-03-31 16:10:00,48.1,18.0,30.08,SSW,202,8.6,12.1,29,0.00,,,0.00,Rainwise IP-100,2013-03-31 20:10:00,
2013-03-31 16:15:00,48.1,18.0,30.08,SSE,157,14.7,14.7,30,0.00,,,0.00,Rainwise IP-100,2013-03-31 20:15:00,
2013-03-31 16:20:00,47.7,18.0,30.08,SE,135,5.1,16.8,31,0.00,,,0.00,Rainwise IP-100,2013-03-31 20:20:00,
2013-03-31 16:25:00,47.6,21.0,30.08,WSW,247,5.4,9.1,32,0.00,,,0.00,Rainwise IP-100,2013-03-31 20:25:00,
2013-03-31 16:30:00,47.8,21.0,30.07,SSE,157,5.4,9.8,32,0.00,,,0.00,Rainwise IP-100,2013-03-31 20:30:00,
2013-03-31 16:35:00,47.6,21.0,30.08,SSW,202,6.3,14.0,32,0.00,,,0.00,Rainwise IP-100,2013-03-31 20:35:00,
2013-03-31 16:40:00,47.3,21.0,30.08,SSE,157,10.7,14.9,32,0.00,,,0.00,Rainwise IP-100,2013-03-31 20:40:00,
2013-03-31 16:45:00,47.2,18.0,30.07,SSE,157,4.7,14.7,32,0.00,,,0.00,Rainwise IP-100,2013-03-31 20:45:00,
2013-03-31 16:50:00,47.2,18.0,30.07,South,180,6.1,11.9,32,0.00,,,0.00,Rainwise IP-100,2013-03-31 20:50:00,
2013-03-31 16:55:00,47.1,18.0,30.07,SSE,157,10.7,12.1,32,0.00,,,0.00,Rainwise IP-100,2013-03-31 20:55:00,
2013-03-31 17:00:00,46.9,18.0,30.07,South,180,3.3,14.0,31,0.00,,,0.00,Rainwise IP-100,2013-03-31 21:00:00,
2013-03-31 17:05:00,46.8,18.0,30.07,SSE,157,7.2,9.6,31,0.00,,,0.00,Rainwise IP-100,2013-03-31 21:05:00,
2013-03-31 17:10:00,46.5,18.0,30.07,SSE,157,6.5,10.3,32,0.00,,,0.00,Rainwise IP-100,2013-03-31 21:10:00,
2013-03-31 17:15:00,45.9,21.0,30.07,ESE,112,3.0,12.4,35,0.00,,,0.00,Rainwise IP-100,2013-03-31 21:15:00,
2013-03-31 17:20:00,45.2,24.0,30.07,SE,135,4.2,10.0,42,0.00,,,0.00,Rainwise IP-100,2013-03-31 21:20:00,
2013-03-31 17:25:00,44.7,26.0,30.07,SSE,157,8.4,11.9,46,0.00,,,0.00,Rainwise IP-100,2013-03-31 21:25:00,
2013-03-31 17:30:00,44.7,24.0,30.06,SSE,157,7.9,11.7,43,0.00,,,0.00,Rainwise IP-100,2013-03-31 21:30:00,
2013-03-31 17:35:00,44.6,23.0,30.07,SSE,157,2.8,11.7,41,0.00,,,0.00,Rainwise IP-100,2013-03-31 21:35:00,
2013-03-31 17:40:00,44.2,23.0,30.06,SSE,157,9.3,14.2,42,0.00,,,0.00,Rainwise IP-100,2013-03-31 21:40:00,
2013-03-31 17:45:00,43.8,24.0,30.07,SSE,157,8.4,14.0,45,0.00,,,0.00,Rainwise IP-100,2013-03-31 21:45:00,
2013-03-31 17:50:00,43.5,26.0,30.06,SSE,157,10.7,12.4,47,0.00,,,0.00,Rainwise IP-100,2013-03-31 21:50:00,
2013-03-31 17:55:00,43.2,26.0,30.06,South,180,6.5,15.2,49,0.00,,,0.00,Rainwise IP-100,2013-03-31 21:55:00,
2013-03-31 18:00:00,43.0,26.0,30.06,SE,135,8.4,11.9,51,0.00,,,0.00,Rainwise IP-100,2013-03-31 22:00:00,
2013-03-31 18:05:00,42.9,28.0,30.06,SSE,157,10.3,15.2,54,0.00,,,0.00,Rainwise IP-100,2013-03-31 22:05:00,
2013-03-31 18:10:00,42.6,29.0,30.06,SSW,202,5.8,14.9,56,0.00,,,0.00,Rainwise IP-100,2013-03-31 22:10:00,
2013-03-31 18:15:00,42.4,28.0,30.05,ESE,112,13.8,15.2,57,0.00,,,0.00,Rainwise IP-100,2013-03-31 22:15:00,
2013-03-31 18:20:00,42.3,29.0,30.06,SSE,157,8.6,15.4,59,0.00,,,0.00,Rainwise IP-100,2013-03-31 22:20:00,
2013-03-31 18:25:00,42.1,29.0,30.05,SSE,157,8.2,14.7,60,0.00,,,0.00,Rainwise IP-100,2013-03-31 22:25:00,
2013-03-31 18:30:00,42.0,29.0,30.05,SSE,157,7.0,15.2,61,0.00,,,0.00,Rainwise IP-100,2013-03-31 22:30:00,
2013-03-31 18:35:00,42.0,31.0,30.05,South,180,7.5,11.9,62,0.00,,,0.00,Rainwise IP-100,2013-03-31 22:35:00,
2013-03-31 18:40:00,41.9,31.0,30.05,South,180,7.7,15.6,62,0.00,,,0.00,Rainwise IP-100,2013-03-31 22:40:00,
2013-03-31 18:45:00,41.9,31.0,30.04,SSE,157,6.3,14.5,62,0.00,,,0.00,Rainwise IP-100,2013-03-31 22:45:00,
2013-03-31 18:50:00,41.9,31.0,30.04,South,180,9.1,16.1,62,0.00,,,0.00,Rainwise IP-100,2013-03-31 22:50:00,
2013-03-31 18:55:00,41.7,31.0,30.04,SSE,157,7.9,15.4,64,0.00,,,0.00,Rainwise IP-100,2013-03-31 22:55:00,
2013-03-31 19:00:00,41.6,32.0,30.04,SSE,157,6.3,17.0,65,0.00,,,0.00,Rainwise IP-100,2013-03-31 23:00:00,
2013-03-31 19:05:00,41.5,32.0,30.04,South,180,7.2,12.1,67,0.00,,,0.00,Rainwise IP-100,2013-03-31 23:05:00,
2013-03-31 19:10:00,41.4,32.0,30.04,SSE,157,9.1,17.5,68,0.00,,,0.00,Rainwise IP-100,2013-03-31 23:10:00,
2013-03-31 19:15:00,41.4,32.0,30.04,SSW,202,6.8,17.5,69,0.00,,,0.00,Rainwise IP-100,2013-03-31 23:15:00,
2013-03-31 19:20:00,41.5,33.0,30.04,SSE,157,5.6,16.8,70,0.00,,,0.00,Rainwise IP-100,2013-03-31 23:20:00,
2013-03-31 19:25:00,41.4,32.0,30.04,SSW,202,8.9,16.6,71,0.00,,,0.00,Rainwise IP-100,2013-03-31 23:25:00,
2013-03-31 19:30:00,41.4,32.0,30.04,SSE,157,11.4,16.8,71,0.00,,,0.00,Rainwise IP-100,2013-03-31 23:30:00,
2013-03-31 19:35:00,41.5,33.0,30.04,SSE,157,13.5,16.6,72,0.00,,,0.00,Rainwise IP-100,2013-03-31 23:35:00,
2013-03-31 19:40:00,41.4,33.0,30.04,SSE,157,6.1,18.9,73,0.00,,,0.00,Rainwise IP-100,2013-03-31 23:40:00,
2013-03-31 19:45:00,41.4,33.0,30.03,SSE,157,9.6,15.2,74,0.00,,,0.00,Rainwise IP-100,2013-03-31 23:45:00,
2013-03-31 19:50:00,41.3,35.0,30.03,SSW,202,10.3,16.8,75,0.00,,,0.00,Rainwise IP-100,2013-03-31 23:50:00,
2013-03-31 19:55:00,41.3,35.0,30.03,SSE,157,6.5,19.1,76,0.00,,,0.00,Rainwise IP-100,2013-03-31 23:55:00,
2013-03-31 20:00:00,41.3,35.0,30.03,SSE,157,5.8,19.1,77,0.00,,,0.00,Rainwise IP-100,2013-04-01 00:00:00,
2013-03-31 20:05:00,41.2,35.0,30.03,SSE,157,10.0,16.6,78,0.00,,,0.00,Rainwise IP-100,2013-04-01 00:05:00,
2013-03-31 20:10:00,41.1,35.0,30.03,SSW,202,7.0,14.5,78,0.00,,,0.00,Rainwise IP-100,2013-04-01 00:10:00,
2013-03-31 20:15:00,41.0,36.0,30.03,SSE,157,8.9,17.0,79,0.00,,,0.00,Rainwise IP-100,2013-04-01 00:15:00,
2013-03-31 20:20:00,41.0,36.0,30.03,South,180,9.1,18.2,80,0.00,,,0.00,Rainwise IP-100,2013-04-01 00:20:00,
2013-03-31 20:25:00,41.0,36.0,30.03,South,180,12.1,14.9,81,0.00,,,0.00,Rainwise IP-100,2013-04-01 00:25:00,
2013-03-31 20:30:00,41.0,36.0,30.03,South,180,7.0,13.8,82,0.00,,,0.00,Rainwise IP-100,2013-04-01 00:30:00,
2013-03-31 20:35:00,41.0,37.0,30.03,South,180,10.5,14.0,83,0.00,,,0.00,Rainwise IP-100,2013-04-01 00:35:00,
2013-03-31 20:40:00,41.0,37.0,30.03,SSE,157,8.9,14.7,84,0.00,,,0.00,Rainwise IP-100,2013-04-01 00:40:00,
2013-03-31 20:46:00,41.0,37.0,30.02,South,180,8.6,14.5,84,0.00,,,0.00,Rainwise IP-100,2013-04-01 00:46:00,
2013-03-31 20:51:00,41.0,37.0,30.03,South,180,4.4,17.5,85,0.00,,,0.00,Rainwise IP-100,2013-04-01 00:51:00,
2013-03-31 20:56:00,41.0,37.0,30.03,SSW,202,10.3,14.0,85,0.00,,,0.00,Rainwise IP-100,2013-04-01 00:56:00,
2013-03-31 21:01:00,41.0,37.0,30.02,South,180,10.7,14.7,86,0.00,,,0.00,Rainwise IP-100,2013-04-01 01:01:00,
2013-03-31 21:06:00,41.1,37.0,30.03,SSW,202,8.4,16.8,86,0.00,,,0.00,Rainwise IP-100,2013-04-01 01:06:00,
2013-03-31 21:11:00,41.1,38.0,30.02,SSE,157,11.7,17.0,87,0.00,,,0.00,Rainwise IP-100,2013-04-01 01:11:00,
2013-03-31 21:16:00,41.0,38.0,30.02,ESE,112,7.7,15.2,87,0.00,,,0.00,Rainwise IP-100,2013-04-01 01:16:00,
2013-03-31 21:21:00,41.0,38.0,30.02,SSE,157,5.1,13.1,88,0.00,,,0.00,Rainwise IP-100,2013-04-01 01:21:00,
2013-03-31 21:26:00,40.9,38.0,30.01,SSW,202,10.7,11.9,88,0.00,,,0.00,Rainwise IP-100,2013-04-01 01:26:00,
2013-03-31 21:31:00,40.9,38.0,30.01,SSW,202,7.9,11.4,89,0.00,,,0.00,Rainwise IP-100,2013-04-01 01:31:00,
2013-03-31 21:36:00,40.7,38.0,30.02,SSW,202,7.5,13.3,89,0.00,,,0.00,Rainwise IP-100,2013-04-01 01:36:00,
2013-03-31 21:41:00,40.6,38.0,30.01,SSE,157,9.1,11.4,90,0.00,,,0.00,Rainwise IP-100,2013-04-01 01:41:00,
2013-03-31 21:46:00,40.6,38.0,30.00,South,180,3.0,10.5,90,0.00,,,0.00,Rainwise IP-100,2013-04-01 01:46:00,
2013-03-31 21:51:00,40.6,38.0,30.00,SSW,202,6.5,13.8,90,0.00,,,0.00,Rainwise IP-100,2013-04-01 01:51:00,
2013-03-31 21:56:00,40.7,39.0,30.00,SSE,157,5.4,11.0,91,0.00,,,0.00,Rainwise IP-100,2013-04-01 01:56:00,
2013-03-31 22:01:00,40.6,39.0,30.00,South,180,7.0,11.9,91,0.00,,,0.00,Rainwise IP-100,2013-04-01 02:01:00,
2013-03-31 22:06:00,40.6,39.0,30.00,SSE,157,5.6,12.1,91,0.00,,,0.00,Rainwise IP-100,2013-04-01 02:06:00,
2013-03-31 22:11:00,40.6,39.0,30.00,SSE,157,6.8,10.5,92,0.00,,,0.00,Rainwise IP-100,2013-04-01 02:11:00,
2013-03-31 22:16:00,40.5,39.0,30.00,SSE,157,4.7,7.9,92,0.00,,,0.00,Rainwise IP-100,2013-04-01 02:16:00,
2013-03-31 22:21:00,40.5,39.0,29.99,SSW,202,4.4,12.1,92,0.00,,,0.00,Rainwise IP-100,2013-04-01 02:21:00,
2013-03-31 22:26:00,40.5,39.0,29.99,South,180,5.6,11.0,92,0.00,,,0.00,Rainwise IP-100,2013-04-01 02:26:00,
2013-03-31 22:31:00,40.6,39.0,29.99,SE,135,10.0,11.0,92,0.00,,,0.00,Rainwise IP-100,2013-04-01 02:31:00,
2013-03-31 22:36:00,40.8,39.0,29.98,South,180,11.2,13.1,91,0.00,,,0.00,Rainwise IP-100,2013-04-01 02:36:00,
2013-03-31 22:41:00,41.0,38.0,29.98,SW,225,3.3,14.7,90,0.00,,,0.00,Rainwise IP-100,2013-04-01 02:41:00,
2013-03-31 22:46:00,41.3,38.0,29.99,South,180,4.9,11.4,89,0.00,,,0.00,Rainwise IP-100,2013-04-01 02:46:00,
2013-03-31 22:51:00,41.5,38.0,29.98,SSW,202,4.9,8.4,87,0.00,,,0.00,Rainwise IP-100,2013-04-01 02:51:00,
2013-03-31 22:56:00,41.7,38.0,29.98,SSE,157,4.0,7.0,86,0.00,,,0.00,Rainwise IP-100,2013-04-01 02:56:00,
2013-03-31 23:01:00,42.0,38.0,29.98,South,180,9.1,14.0,85,0.00,,,0.00,Rainwise IP-100,2013-04-01 03:01:00,
2013-03-31 23:06:00,42.5,38.0,29.97,South,180,11.2,11.2,83,0.00,,,0.00,Rainwise IP-100,2013-04-01 03:06:00,
2013-03-31 23:11:00,42.9,38.0,29.96,SSW,202,7.0,13.1,81,0.00,,,0.00,Rainwise IP-100,2013-04-01 03:11:00,
2013-03-31 23:16:00,43.4,37.0,29.96,SSW,202,11.9,13.5,80,0.00,,,0.00,Rainwise IP-100,2013-04-01 03:16:00,
2013-03-31 23:21:00,43.8,38.0,29.96,SSE,157,8.2,12.6,79,0.00,,,0.00,Rainwise IP-100,2013-04-01 03:21:00,
2013-03-31 23:26:00,44.2,38.0,29.96,SSW,202,7.2,14.5,78,0.00,,,0.00,Rainwise IP-100,2013-04-01 03:26:00,
2013-03-31 23:31:00,44.6,38.0,29.95,SW,225,6.5,15.2,76,0.00,,,0.00,Rainwise IP-100,2013-04-01 03:31:00,
2013-03-31 23:36:00,44.6,38.0,29.95,South,180,7.5,17.3,75,0.00,,,0.00,Rainwise IP-100,2013-04-01 03:36:00,
2013-03-31 23:41:00,44.6,37.0,29.95,South,180,6.5,18.9,74,0.00,,,0.00,Rainwise IP-100,2013-04-01 03:41:00,
2013-03-31 23:46:00,44.6,37.0,29.95,SSE,157,10.7,17.0,74,0.00,,,0.00,Rainwise IP-100,2013-04-01 03:46:00,
2013-03-31 23:51:00,44.5,37.0,29.95,SW,225,7.5,19.4,73,0.00,,,0.00,Rainwise IP-100,2013-04-01 03:51:00,
2013-03-31 23:56:00,44.4,36.0,29.94,SSE,157,11.0,14.7,73,0.00,,,0.00,Rainwise IP-100,2013-04-01 03:56:00,